NKS1834 KDTW-KDFW

Flight info

Callsign NKS1834
Flight time 2h 30m
Altitude 32000
Route SNDRS3 BGHRT STL RZC FSM RRNET SEEVR4
Aircraft A320/M-SDE3FGHIRWY/LB1

Departure

Time 2026-05-05 18:36
Airport Detroit Metropolitan Wayne County Airport (KDTW)

Arrival

Time 2026-05-05 21:06
Airport Dallas Fort Worth International Airport (KDFW)
Time Latitude Longitude Altitude Speed Heading
2026-05-05 18:11 42.22261 -83.35222 650 ft 0 kts 82°
2026-05-05 18:22 42.22258 -83.35244 649 ft 4 kts 82°
2026-05-05 18:22 42.22255 -83.35280 653 ft 4 kts 90°
2026-05-05 18:22 42.22258 -83.35316 649 ft 4 kts 107°
2026-05-05 18:23 42.22269 -83.35347 650 ft 4 kts 143°
2026-05-05 18:23 42.22283 -83.35356 652 ft 1 kts 175°
2026-05-05 18:23 42.22286 -83.35357 650 ft 0 kts 175°
2026-05-05 18:25 42.22283 -83.35358 652 ft 2 kts 191°
2026-05-05 18:25 42.22247 -83.35379 649 ft 11 kts 206°
2026-05-05 18:25 42.22131 -83.35465 649 ft 19 kts 208°
2026-05-05 18:25 42.22000 -83.35563 649 ft 23 kts 209°
2026-05-05 18:26 42.21859 -83.35661 648 ft 21 kts 191°
2026-05-05 18:26 42.21824 -83.35575 648 ft 10 kts 91°
2026-05-05 18:26 42.21822 -83.35445 648 ft 18 kts 88°
2026-05-05 18:26 42.21826 -83.35251 648 ft 24 kts 90°
2026-05-05 18:27 42.21829 -83.35016 649 ft 26 kts 89°
2026-05-05 18:27 42.21834 -83.34767 649 ft 27 kts 88°
2026-05-05 18:27 42.21843 -83.34533 649 ft 18 kts 69°
2026-05-05 18:27 42.21925 -83.34454 649 ft 16 kts 32°
2026-05-05 18:28 42.22238 -83.34224 649 ft 28 kts 27°
2026-05-05 18:28 42.22413 -83.34090 649 ft 30 kts 27°
2026-05-05 18:28 42.22596 -83.33957 649 ft 31 kts 28°
2026-05-05 18:29 42.22766 -83.33831 648 ft 20 kts 29°
2026-05-05 18:29 42.22798 -83.33807 649 ft 2 kts 30°
2026-05-05 18:29 42.22802 -83.33804 649 ft 0 kts 28°
2026-05-05 18:30 42.22842 -83.33770 648 ft 10 kts 45°
2026-05-05 18:31 42.22851 -83.33722 646 ft 2 kts 93°
2026-05-05 18:31 42.22851 -83.33721 646 ft 0 kts 93°
2026-05-05 18:33 42.22838 -83.33681 646 ft 13 kts 122°
2026-05-05 18:33 42.22752 -83.33676 646 ft 13 kts 197°
2026-05-05 18:33 42.22707 -83.33707 646 ft 0 kts 211°
2026-05-05 18:35 42.22577 -83.33806 647 ft 60 kts 208°
2026-05-05 18:35 42.21968 -83.34247 648 ft 134 kts 209°
2026-05-05 18:35 42.21044 -83.34961 975 ft 164 kts 213°
2026-05-05 18:36 42.19984 -83.35751 1665 ft 183 kts 213°
2026-05-05 18:36 42.18897 -83.36488 2202 ft 207 kts 202°
2026-05-05 18:36 42.18881 -83.36496 2211 ft 208 kts 202°
2026-05-05 18:36 42.18454 -83.36682 2345 ft 220 kts 200°
2026-05-05 18:37 42.16913 -83.37282 3062 ft 244 kts 199°
2026-05-05 18:37 42.15224 -83.37910 4057 ft 255 kts 200°
2026-05-05 18:37 42.13519 -83.38529 5338 ft 252 kts 201°
2026-05-05 18:37 42.11841 -83.39139 6594 ft 247 kts 201°
2026-05-05 18:38 42.10199 -83.39742 7496 ft 248 kts 202°
2026-05-05 18:38 42.08530 -83.40371 8337 ft 249 kts 204°
2026-05-05 18:38 42.06957 -83.41311 9156 ft 245 kts 217°
2026-05-05 18:38 42.05562 -83.42631 9961 ft 245 kts 221°
2026-05-05 18:39 42.04155 -83.44020 10424 ft 260 kts 221°
2026-05-05 18:39 42.02629 -83.45527 10612 ft 283 kts 220°
2026-05-05 18:39 42.00974 -83.47156 10754 ft 305 kts 220°
2026-05-05 18:39 41.99242 -83.48853 11194 ft 316 kts 220°
2026-05-05 18:40 41.97459 -83.50623 11839 ft 320 kts 220°
2026-05-05 18:40 41.95668 -83.52454 12529 ft 324 kts 221°
2026-05-05 18:40 41.93886 -83.54302 13237 ft 328 kts 221°
2026-05-05 18:40 41.92061 -83.56204 13924 ft 333 kts 221°
2026-05-05 18:41 41.90211 -83.58129 14560 ft 337 kts 221°
2026-05-05 18:41 41.88367 -83.60040 15175 ft 340 kts 221°
2026-05-05 18:41 41.86474 -83.61992 15816 ft 344 kts 221°
2026-05-05 18:41 41.84563 -83.63959 16399 ft 347 kts 221°
2026-05-05 18:42 41.82631 -83.65945 16984 ft 351 kts 221°
2026-05-05 18:42 41.80708 -83.67918 17594 ft 354 kts 221°
2026-05-05 18:42 41.78739 -83.69939 18192 ft 357 kts 221°
2026-05-05 18:42 41.76753 -83.71975 18746 ft 360 kts 221°
2026-05-05 18:43 41.74747 -83.74026 19309 ft 363 kts 221°
2026-05-05 18:43 41.72726 -83.76090 19873 ft 366 kts 221°
2026-05-05 18:43 41.70710 -83.78146 20437 ft 369 kts 221°
2026-05-05 18:43 41.68557 -83.80065 20955 ft 375 kts 216°
2026-05-05 18:44 41.66306 -83.81878 21480 ft 378 kts 216°
2026-05-05 18:44 41.64033 -83.83703 21992 ft 381 kts 216°
2026-05-05 18:44 41.61740 -83.85542 22482 ft 384 kts 216°
2026-05-05 18:44 41.59463 -83.87368 22949 ft 388 kts 217°
2026-05-05 18:45 41.57133 -83.89240 23414 ft 391 kts 217°
2026-05-05 18:45 41.54781 -83.91125 23849 ft 393 kts 217°
2026-05-05 18:45 41.52431 -83.93006 24285 ft 395 kts 217°
2026-05-05 18:45 41.50054 -83.94905 24733 ft 397 kts 217°
2026-05-05 18:46 41.47714 -83.96772 25167 ft 398 kts 217°
2026-05-05 18:46 41.45322 -83.98677 25580 ft 400 kts 217°
2026-05-05 18:46 41.42924 -84.00586 25988 ft 401 kts 217°
2026-05-05 18:46 41.40517 -84.02502 26409 ft 402 kts 217°
2026-05-05 18:47 41.38129 -84.04401 26977 ft 399 kts 217°
2026-05-05 18:47 41.35765 -84.06282 27551 ft 397 kts 217°
2026-05-05 18:47 41.33397 -84.08166 28136 ft 394 kts 217°
2026-05-05 18:47 41.31049 -84.10032 28718 ft 392 kts 217°
2026-05-05 18:48 41.28727 -84.11918 29291 ft 387 kts 220°
2026-05-05 18:48 41.26655 -84.14161 29850 ft 379 kts 229°
2026-05-05 18:48 41.24941 -84.16795 30337 ft 374 kts 237°
2026-05-05 18:48 41.23615 -84.19694 30788 ft 370 kts 245°
2026-05-05 18:49 41.22618 -84.22831 31267 ft 367 kts 249°
2026-05-05 18:49 41.21682 -84.25995 31722 ft 366 kts 249°
2026-05-05 18:49 41.20744 -84.29132 31863 ft 366 kts 249°
2026-05-05 18:49 41.19799 -84.32277 31889 ft 375 kts 249°
2026-05-05 18:50 41.17838 -84.38793 31887 ft 382 kts 249°
2026-05-05 18:50 41.15860 -84.45362 31886 ft 383 kts 249°
2026-05-05 18:51 41.13889 -84.51888 31883 ft 383 kts 249°
2026-05-05 18:51 41.11894 -84.58469 31881 ft 383 kts 249°
2026-05-05 18:52 41.10055 -84.65059 31872 ft 383 kts 257°
2026-05-05 18:52 41.08909 -84.71949 31876 ft 384 kts 257°
2026-05-05 18:53 41.07934 -84.77708 31876 ft 384 kts 257°
2026-05-05 18:53 41.06756 -84.84623 31880 ft 383 kts 257°
2026-05-05 18:54 41.05583 -84.91482 31883 ft 384 kts 258°
2026-05-05 18:54 41.04406 -84.98431 31893 ft 384 kts 258°
2026-05-05 18:55 41.03235 -85.05300 31887 ft 384 kts 258°
2026-05-05 18:55 41.02048 -85.12175 31889 ft 384 kts 258°
2026-05-05 18:56 41.00847 -85.19100 31891 ft 384 kts 258°
2026-05-05 18:56 40.99652 -85.26008 31893 ft 385 kts 258°
2026-05-05 18:57 40.98452 -85.32916 31895 ft 385 kts 258°
2026-05-05 18:57 40.97253 -85.39795 31893 ft 385 kts 258°
2026-05-05 18:58 40.96046 -85.46690 31895 ft 384 kts 259°
2026-05-05 18:58 40.94845 -85.53551 31899 ft 384 kts 259°
2026-05-05 18:59 40.93638 -85.60418 31901 ft 384 kts 259°
2026-05-05 18:59 40.92408 -85.67318 31902 ft 383 kts 259°
2026-05-05 19:00 40.91198 -85.74139 31903 ft 383 kts 259°
2026-05-05 19:00 40.89977 -85.81000 31900 ft 382 kts 259°
2026-05-05 19:01 40.88754 -85.87810 31903 ft 382 kts 259°
2026-05-05 19:01 40.87906 -85.94718 31904 ft 380 kts 264°
2026-05-05 19:02 40.87174 -86.01606 31907 ft 379 kts 263°
2026-05-05 19:02 40.86437 -86.08501 31913 ft 379 kts 263°
2026-05-05 19:03 40.85691 -86.15414 31896 ft 378 kts 263°
2026-05-05 19:03 40.84946 -86.22282 31915 ft 377 kts 264°
2026-05-05 19:04 40.84203 -86.29105 31922 ft 377 kts 263°
2026-05-05 19:04 40.83447 -86.35956 31920 ft 376 kts 263°
2026-05-05 19:05 40.82686 -86.42808 31915 ft 376 kts 263°
2026-05-05 19:05 40.81932 -86.49606 31915 ft 376 kts 264°
2026-05-05 19:06 40.81172 -86.56445 31913 ft 376 kts 264°
2026-05-05 19:06 40.80406 -86.63289 31912 ft 375 kts 264°
2026-05-05 19:07 40.79638 -86.70070 31909 ft 375 kts 263°
2026-05-05 19:07 40.78869 -86.76844 31910 ft 374 kts 263°
2026-05-05 19:08 40.78089 -86.83651 31915 ft 374 kts 263°
2026-05-05 19:08 40.77309 -86.90422 31918 ft 373 kts 263°
2026-05-05 19:09 40.76533 -86.97173 31920 ft 373 kts 263°
2026-05-05 19:09 40.75755 -87.03936 31925 ft 372 kts 263°
2026-05-05 19:10 40.74971 -87.10689 31923 ft 372 kts 263°
2026-05-05 19:10 40.74180 -87.17405 31923 ft 371 kts 263°
2026-05-05 19:11 40.73386 -87.24148 31921 ft 371 kts 263°
2026-05-05 19:11 40.72593 -87.30833 31922 ft 371 kts 263°
2026-05-05 19:12 40.71793 -87.37549 31921 ft 370 kts 263°
2026-05-05 19:12 40.70990 -87.44267 31918 ft 370 kts 263°
2026-05-05 19:13 40.70190 -87.50941 31916 ft 369 kts 263°
2026-05-05 19:13 40.69385 -87.57627 31915 ft 369 kts 263°
2026-05-05 19:14 40.68575 -87.64321 31916 ft 369 kts 263°
2026-05-05 19:14 40.67766 -87.70951 31917 ft 368 kts 263°
2026-05-05 19:15 40.66945 -87.77624 31918 ft 368 kts 263°
2026-05-05 19:15 40.66125 -87.84244 31919 ft 368 kts 263°
2026-05-05 19:16 40.65178 -87.90856 31921 ft 370 kts 256°
2026-05-05 19:16 40.62656 -87.96839 31913 ft 386 kts 237°
2026-05-05 19:17 40.59075 -88.02135 31923 ft 387 kts 237°
2026-05-05 19:17 40.55473 -88.07447 31924 ft 387 kts 237°
2026-05-05 19:18 40.51916 -88.12704 31921 ft 387 kts 237°
2026-05-05 19:18 40.48327 -88.18003 31926 ft 388 kts 237°
2026-05-05 19:19 40.44751 -88.23271 31927 ft 388 kts 237°
2026-05-05 19:19 40.41149 -88.28562 31929 ft 388 kts 237°
2026-05-05 19:20 40.37540 -88.33857 31929 ft 389 kts 237°
2026-05-05 19:20 40.33950 -88.39104 31931 ft 389 kts 237°
2026-05-05 19:21 40.30336 -88.44396 31919 ft 389 kts 237°
2026-05-05 19:21 40.26722 -88.49675 31920 ft 389 kts 237°
2026-05-05 19:22 40.23112 -88.54933 31919 ft 389 kts 237°
2026-05-05 19:22 40.19503 -88.60177 31915 ft 389 kts 237°
2026-05-05 19:23 40.15868 -88.65459 31917 ft 389 kts 237°
2026-05-05 19:23 40.12262 -88.70690 31917 ft 389 kts 237°
2026-05-05 19:24 40.08630 -88.75948 31923 ft 389 kts 237°
2026-05-05 19:24 40.05004 -88.81183 31927 ft 389 kts 238°
2026-05-05 19:25 40.01367 -88.86427 31937 ft 389 kts 238°
2026-05-05 19:25 39.97725 -88.91681 31933 ft 390 kts 238°
2026-05-05 19:26 39.94097 -88.96899 31940 ft 390 kts 238°
2026-05-05 19:26 39.90434 -89.02150 31931 ft 390 kts 238°
2026-05-05 19:27 39.86774 -89.07384 31933 ft 390 kts 238°
2026-05-05 19:27 39.83130 -89.12596 31924 ft 390 kts 238°
2026-05-05 19:28 39.79482 -89.17805 31928 ft 390 kts 238°
2026-05-05 19:28 39.75819 -89.23028 31940 ft 390 kts 238°
2026-05-05 19:29 39.72153 -89.28241 31947 ft 390 kts 238°
2026-05-05 19:29 39.68483 -89.33462 31954 ft 390 kts 238°
2026-05-05 19:30 39.64831 -89.38643 31960 ft 390 kts 238°
2026-05-05 19:30 39.61154 -89.43845 31961 ft 390 kts 237°
2026-05-05 19:31 39.57492 -89.49019 31955 ft 390 kts 237°
2026-05-05 19:31 39.53829 -89.54185 31947 ft 390 kts 237°
2026-05-05 19:32 39.50148 -89.59367 31947 ft 390 kts 237°
2026-05-05 19:32 39.46458 -89.64550 31933 ft 390 kts 237°
2026-05-05 19:33 39.42791 -89.69694 31930 ft 390 kts 237°
2026-05-05 19:33 39.39101 -89.74869 31929 ft 390 kts 237°
2026-05-05 19:34 39.35420 -89.80016 31932 ft 390 kts 237°
2026-05-05 19:35 39.29905 -89.87705 31935 ft 390 kts 237°
2026-05-05 19:35 39.26209 -89.92849 31936 ft 390 kts 237°
2026-05-05 19:36 39.22517 -89.97991 31936 ft 390 kts 237°
2026-05-05 19:36 39.18848 -90.03085 31936 ft 389 kts 236°
2026-05-05 19:37 39.15159 -90.08208 31934 ft 389 kts 236°
2026-05-05 19:37 39.11459 -90.13323 31934 ft 389 kts 236°
2026-05-05 19:38 39.07778 -90.18411 31925 ft 389 kts 236°
2026-05-05 19:38 39.04098 -90.23488 31931 ft 389 kts 236°
2026-05-05 19:39 39.00389 -90.28587 31924 ft 389 kts 236°
2026-05-05 19:39 38.96706 -90.33642 31937 ft 389 kts 236°
2026-05-05 19:40 38.93004 -90.38729 31933 ft 389 kts 236°
2026-05-05 19:40 38.89927 -90.42964 31933 ft 389 kts 236°
2026-05-05 19:41 38.86215 -90.48055 31930 ft 390 kts 236°
2026-05-05 19:41 38.82597 -90.53191 31930 ft 388 kts 237°
2026-05-05 19:42 38.79096 -90.58420 31932 ft 387 kts 238°
2026-05-05 19:42 38.75575 -90.63671 31935 ft 387 kts 237°
2026-05-05 19:43 38.72047 -90.68858 31939 ft 388 kts 237°
2026-05-05 19:43 38.68480 -90.74059 31934 ft 388 kts 237°
2026-05-05 19:44 38.64921 -90.79245 31936 ft 387 kts 237°
2026-05-05 19:44 38.61387 -90.84402 31938 ft 387 kts 237°
2026-05-05 19:45 38.57835 -90.89588 31935 ft 387 kts 237°
2026-05-05 19:45 38.54290 -90.94748 31933 ft 387 kts 237°
2026-05-05 19:46 38.50724 -90.99921 31930 ft 388 kts 237°
2026-05-05 19:46 38.47152 -91.05104 31927 ft 388 kts 237°
2026-05-05 19:47 38.43600 -91.10243 31926 ft 388 kts 237°
2026-05-05 19:47 38.40013 -91.15410 31929 ft 388 kts 237°
2026-05-05 19:48 38.36453 -91.20548 31934 ft 388 kts 237°
2026-05-05 19:48 38.32873 -91.25712 31937 ft 388 kts 237°
2026-05-05 19:49 38.29281 -91.30863 31940 ft 389 kts 236°
2026-05-05 19:49 38.25704 -91.35991 31934 ft 388 kts 236°
2026-05-05 19:50 38.22127 -91.41124 31930 ft 389 kts 236°
2026-05-05 19:50 38.18531 -91.46267 31921 ft 389 kts 236°
2026-05-05 19:51 38.14921 -91.51414 31914 ft 389 kts 236°
2026-05-05 19:51 38.11325 -91.56547 31917 ft 389 kts 236°
2026-05-05 19:52 38.07741 -91.61651 31917 ft 389 kts 236°
2026-05-05 19:52 38.04130 -91.66789 31917 ft 389 kts 236°
2026-05-05 19:53 38.00541 -91.71886 31916 ft 389 kts 236°
2026-05-05 19:53 37.96919 -91.77017 31910 ft 390 kts 236°
2026-05-05 19:54 37.93290 -91.82139 31909 ft 390 kts 236°
2026-05-05 19:54 37.89676 -91.87250 31898 ft 390 kts 236°
2026-05-05 19:55 37.86069 -91.92339 31873 ft 390 kts 236°
2026-05-05 19:55 37.82436 -91.97455 31873 ft 390 kts 236°
2026-05-05 19:56 37.78816 -92.02540 31888 ft 390 kts 236°
2026-05-05 19:56 37.75174 -92.07656 31879 ft 390 kts 236°
2026-05-05 19:57 37.71560 -92.12722 31885 ft 390 kts 236°
2026-05-05 19:57 37.67922 -92.17800 31891 ft 390 kts 236°
2026-05-05 19:58 37.64267 -92.22894 31889 ft 390 kts 236°
2026-05-05 19:58 37.60620 -92.27982 31886 ft 390 kts 236°
2026-05-05 19:59 37.56997 -92.33030 31884 ft 390 kts 236°
2026-05-05 19:59 37.53343 -92.38120 31887 ft 390 kts 236°
2026-05-05 20:00 37.49692 -92.43191 31890 ft 390 kts 236°
2026-05-05 20:00 37.46064 -92.48213 31888 ft 390 kts 236°
2026-05-05 20:01 37.42408 -92.53271 31886 ft 389 kts 236°
2026-05-05 20:01 37.38776 -92.58291 31886 ft 389 kts 236°
2026-05-05 20:02 37.35121 -92.63333 31873 ft 389 kts 236°
2026-05-05 20:02 37.31471 -92.68365 31866 ft 389 kts 236°
2026-05-05 20:03 37.27848 -92.73351 31858 ft 388 kts 236°
2026-05-05 20:03 37.24186 -92.78364 31857 ft 388 kts 236°
2026-05-05 20:04 37.20561 -92.83329 31853 ft 387 kts 236°
2026-05-05 20:04 37.16910 -92.88324 31853 ft 387 kts 236°
2026-05-05 20:05 37.13294 -92.93278 31841 ft 386 kts 236°
2026-05-05 20:05 37.09658 -92.98250 31838 ft 386 kts 236°
2026-05-05 20:06 37.06048 -93.03174 31829 ft 385 kts 236°
2026-05-05 20:06 37.02404 -93.08122 31828 ft 385 kts 236°
2026-05-05 20:07 36.98779 -93.13026 31823 ft 385 kts 236°
2026-05-05 20:07 36.95137 -93.17963 31818 ft 385 kts 236°
2026-05-05 20:08 36.91520 -93.22867 31822 ft 385 kts 236°
2026-05-05 20:08 36.87866 -93.27805 31821 ft 385 kts 236°
2026-05-05 20:09 36.84250 -93.32697 31827 ft 385 kts 236°
2026-05-05 20:09 36.80592 -93.37623 31832 ft 385 kts 236°
2026-05-05 20:10 36.76953 -93.42518 31834 ft 385 kts 236°
2026-05-05 20:10 36.73330 -93.47402 31837 ft 385 kts 236°
2026-05-05 20:11 36.69687 -93.52297 31833 ft 384 kts 236°
2026-05-05 20:11 36.66039 -93.57176 31832 ft 384 kts 236°
2026-05-05 20:12 36.62422 -93.62013 31821 ft 383 kts 236°
2026-05-05 20:12 36.58772 -93.66882 31813 ft 383 kts 236°
2026-05-05 20:13 36.55147 -93.71728 31809 ft 383 kts 236°
2026-05-05 20:13 36.51514 -93.76580 31810 ft 383 kts 235°
2026-05-05 20:14 36.47861 -93.81425 31813 ft 383 kts 236°
2026-05-05 20:14 36.44227 -93.86240 31831 ft 383 kts 235°
2026-05-05 20:15 36.40582 -93.91078 31842 ft 383 kts 235°
2026-05-05 20:15 36.36961 -93.95881 31850 ft 383 kts 235°
2026-05-05 20:16 36.33321 -94.00706 31854 ft 383 kts 235°
2026-05-05 20:16 36.29660 -94.05526 31860 ft 383 kts 235°
2026-05-05 20:17 36.25852 -94.10135 31844 ft 394 kts 225°
2026-05-05 20:17 36.23420 -94.11846 31842 ft 411 kts 214°
2026-05-05 20:17 36.20613 -94.12872 31840 ft 432 kts 202°
2026-05-05 20:18 36.14589 -94.13915 31831 ft 436 kts 200°
2026-05-05 20:18 36.08600 -94.14953 31799 ft 436 kts 201°
2026-05-05 20:19 36.02587 -94.16016 31797 ft 436 kts 201°
2026-05-05 20:19 35.96593 -94.17075 31804 ft 437 kts 201°
2026-05-05 20:20 35.90558 -94.18133 31801 ft 437 kts 201°
2026-05-05 20:20 35.84523 -94.19191 31787 ft 438 kts 201°
2026-05-05 20:21 35.78515 -94.20245 31777 ft 438 kts 201°
2026-05-05 20:21 35.72479 -94.21302 31766 ft 438 kts 201°
2026-05-05 20:22 35.66436 -94.22356 31756 ft 438 kts 201°
2026-05-05 20:22 35.60406 -94.23406 31753 ft 438 kts 201°
2026-05-05 20:23 35.54375 -94.24452 31744 ft 438 kts 201°
2026-05-05 20:23 35.48317 -94.25506 31741 ft 439 kts 201°
2026-05-05 20:24 35.42339 -94.26650 31736 ft 429 kts 207°
2026-05-05 20:24 35.39544 -94.27785 31737 ft 413 kts 216°
2026-05-05 20:24 35.37078 -94.29392 31739 ft 399 kts 224°
2026-05-05 20:24 35.34892 -94.31426 31738 ft 388 kts 232°
2026-05-05 20:25 35.32882 -94.33633 31742 ft 388 kts 231°
2026-05-05 20:25 35.28861 -94.38009 31743 ft 389 kts 231°
2026-05-05 20:26 35.24798 -94.42400 31742 ft 389 kts 231°
2026-05-05 20:26 35.20761 -94.46766 31740 ft 389 kts 231°
2026-05-05 20:27 35.16705 -94.51159 31734 ft 389 kts 231°
2026-05-05 20:27 35.12646 -94.55544 31736 ft 389 kts 231°
2026-05-05 20:28 35.08602 -94.59907 31748 ft 389 kts 231°
2026-05-05 20:28 35.05221 -94.63545 31741 ft 389 kts 231°
2026-05-05 20:29 35.01140 -94.67920 31737 ft 390 kts 231°
2026-05-05 20:29 34.97094 -94.72271 31732 ft 390 kts 231°
2026-05-05 20:30 34.93011 -94.76659 31741 ft 390 kts 231°
2026-05-05 20:30 34.88932 -94.81020 31738 ft 390 kts 231°
2026-05-05 20:31 34.84860 -94.85375 31742 ft 390 kts 231°
2026-05-05 20:31 34.80798 -94.89702 31743 ft 391 kts 230°
2026-05-05 20:32 34.76621 -94.93992 31742 ft 392 kts 230°
2026-05-05 20:32 34.72440 -94.98214 31747 ft 392 kts 230°
2026-05-05 20:33 34.68240 -95.02474 31748 ft 392 kts 230°
2026-05-05 20:33 34.64080 -95.06709 31747 ft 392 kts 230°
2026-05-05 20:34 34.59905 -95.10965 31747 ft 392 kts 230°
2026-05-05 20:34 34.55741 -95.15203 31750 ft 392 kts 230°
2026-05-05 20:35 34.51542 -95.19457 31751 ft 392 kts 229°
2026-05-05 20:35 34.47374 -95.23672 31752 ft 392 kts 230°
2026-05-05 20:36 34.43203 -95.27889 31752 ft 392 kts 229°
2026-05-05 20:36 34.38997 -95.32125 31751 ft 392 kts 229°
2026-05-05 20:37 34.34825 -95.36326 31753 ft 392 kts 229°
2026-05-05 20:37 34.30631 -95.40545 31752 ft 392 kts 229°
2026-05-05 20:38 34.26451 -95.44737 31760 ft 392 kts 229°
2026-05-05 20:38 34.22256 -95.48949 31763 ft 391 kts 229°
2026-05-05 20:39 34.18062 -95.53152 31768 ft 391 kts 229°
2026-05-05 20:39 34.13857 -95.57351 31769 ft 391 kts 229°
2026-05-05 20:40 34.09676 -95.61504 31772 ft 391 kts 229°
2026-05-05 20:40 34.07567 -95.63598 31389 ft 387 kts 229°
2026-05-05 20:40 34.05507 -95.65643 30830 ft 389 kts 229°
2026-05-05 20:40 34.03413 -95.67725 30332 ft 389 kts 229°
2026-05-05 20:41 34.01317 -95.69805 29840 ft 388 kts 229°
2026-05-05 20:41 33.99234 -95.71865 29269 ft 385 kts 229°
2026-05-05 20:41 33.97189 -95.73889 28683 ft 383 kts 229°
2026-05-05 20:41 33.95138 -95.75921 28104 ft 379 kts 229°
2026-05-05 20:42 33.93110 -95.77944 27530 ft 376 kts 229°
2026-05-05 20:42 33.91102 -95.79956 26973 ft 373 kts 229°
2026-05-05 20:42 33.89141 -95.81923 26433 ft 370 kts 229°
2026-05-05 20:42 33.87163 -95.83906 25887 ft 367 kts 229°
2026-05-05 20:43 33.85210 -95.85863 25369 ft 364 kts 229°
2026-05-05 20:43 33.83258 -95.87810 24843 ft 361 kts 229°
2026-05-05 20:43 33.81345 -95.89708 24346 ft 359 kts 229°
2026-05-05 20:43 33.79412 -95.91618 23846 ft 357 kts 229°
2026-05-05 20:44 33.77500 -95.93507 23364 ft 355 kts 229°
2026-05-05 20:44 33.75594 -95.95385 22782 ft 353 kts 228°
2026-05-05 20:44 33.73722 -95.97229 22208 ft 351 kts 228°
2026-05-05 20:44 33.71840 -95.99089 21648 ft 349 kts 227°
2026-05-05 20:45 33.68090 -96.02790 20551 ft 347 kts 226°
2026-05-05 20:45 33.66248 -96.04605 20024 ft 346 kts 226°
2026-05-05 20:45 33.64380 -96.06445 19485 ft 345 kts 225°
2026-05-05 20:46 33.62523 -96.08273 18983 ft 344 kts 225°
2026-05-05 20:46 33.60674 -96.10087 18513 ft 341 kts 225°
2026-05-05 20:46 33.58868 -96.11858 18069 ft 338 kts 224°
2026-05-05 20:46 33.57049 -96.13635 17553 ft 334 kts 224°
2026-05-05 20:47 33.55260 -96.15383 17032 ft 331 kts 224°
2026-05-05 20:47 33.53478 -96.17127 16522 ft 327 kts 224°
2026-05-05 20:47 33.51716 -96.18853 16080 ft 323 kts 224°
2026-05-05 20:47 33.49984 -96.20556 15739 ft 320 kts 224°
2026-05-05 20:48 33.48286 -96.22222 15226 ft 319 kts 224°
2026-05-05 20:48 33.46578 -96.23894 14794 ft 315 kts 224°
2026-05-05 20:48 33.44907 -96.25545 14472 ft 307 kts 226°
2026-05-05 20:48 33.43474 -96.27391 14140 ft 298 kts 232°
2026-05-05 20:49 33.42129 -96.29255 13827 ft 293 kts 232°
2026-05-05 20:49 33.40796 -96.31091 13548 ft 291 kts 232°
2026-05-05 20:49 33.39486 -96.32890 13245 ft 290 kts 232°
2026-05-05 20:49 33.38163 -96.34707 12938 ft 289 kts 232°
2026-05-05 20:50 33.36841 -96.36526 12634 ft 289 kts 232°
2026-05-05 20:50 33.35526 -96.38335 12327 ft 286 kts 232°
2026-05-05 20:50 33.34224 -96.40120 12037 ft 281 kts 232°
2026-05-05 20:50 33.33009 -96.41928 11749 ft 275 kts 239°
2026-05-05 20:51 33.32184 -96.43923 11454 ft 269 kts 251°
2026-05-05 20:51 33.31602 -96.46031 11210 ft 263 kts 252°
2026-05-05 20:51 33.31028 -96.48103 10972 ft 261 kts 252°
2026-05-05 20:51 33.30454 -96.50149 10736 ft 257 kts 251°
2026-05-05 20:52 33.29886 -96.52155 10500 ft 253 kts 252°
2026-05-05 20:52 33.29332 -96.54113 10266 ft 249 kts 252°
2026-05-05 20:52 33.28812 -96.56089 10035 ft 248 kts 257°
2026-05-05 20:52 33.28627 -96.58143 9807 ft 250 kts 266°
2026-05-05 20:53 33.28541 -96.60224 9543 ft 250 kts 265°
2026-05-05 20:53 33.28450 -96.62296 9230 ft 249 kts 265°
2026-05-05 20:53 33.28354 -96.64365 8933 ft 248 kts 265°
2026-05-05 20:53 33.28256 -96.66423 8632 ft 247 kts 265°
2026-05-05 20:54 33.28158 -96.68453 8337 ft 247 kts 265°
2026-05-05 20:54 33.28060 -96.70503 8035 ft 246 kts 265°
2026-05-05 20:54 33.27964 -96.72544 7743 ft 245 kts 265°
2026-05-05 20:54 33.27870 -96.74564 7461 ft 245 kts 265°
2026-05-05 20:55 33.27774 -96.76596 7169 ft 244 kts 265°
2026-05-05 20:55 33.27679 -96.78613 6885 ft 243 kts 266°
2026-05-05 20:55 33.27584 -96.80628 6600 ft 242 kts 266°
2026-05-05 20:55 33.27491 -96.82608 6323 ft 241 kts 266°
2026-05-05 20:56 33.27398 -96.84612 6032 ft 240 kts 266°
2026-05-05 20:56 33.27318 -96.86608 5732 ft 240 kts 266°
2026-05-05 20:56 33.27247 -96.88605 5440 ft 240 kts 267°
2026-05-05 20:56 33.27194 -96.90076 5220 ft 240 kts 267°
2026-05-05 20:57 33.27121 -96.92057 4932 ft 238 kts 267°
2026-05-05 20:57 33.27051 -96.94008 4651 ft 238 kts 267°
2026-05-05 20:57 33.26978 -96.95998 4354 ft 238 kts 267°
2026-05-05 20:57 33.26889 -96.97971 4077 ft 237 kts 262°
2026-05-05 20:58 33.26366 -96.99757 3989 ft 226 kts 239°
2026-05-05 20:58 33.25299 -97.01061 4000 ft 216 kts 218°
2026-05-05 20:58 33.24049 -97.02049 4005 ft 215 kts 216°
2026-05-05 20:58 33.22804 -97.03021 4003 ft 214 kts 216°
2026-05-05 20:59 33.21533 -97.03948 4001 ft 213 kts 210°
2026-05-05 20:59 33.20196 -97.04653 3752 ft 215 kts 202°
2026-05-05 20:59 33.18733 -97.05119 3490 ft 218 kts 194°
2026-05-05 20:59 33.17224 -97.05320 3347 ft 215 kts 187°
2026-05-05 21:00 33.15764 -97.05324 3304 ft 204 kts 184°
2026-05-05 21:00 33.14575 -97.05323 3230 ft 197 kts 185°
2026-05-05 21:00 33.13220 -97.05328 3148 ft 195 kts 185°
2026-05-05 21:00 33.11859 -97.05338 3096 ft 195 kts 185°
2026-05-05 21:01 33.10506 -97.05346 3044 ft 192 kts 186°
2026-05-05 21:01 33.09166 -97.05356 3006 ft 194 kts 185°
2026-05-05 21:01 33.07823 -97.05365 2954 ft 192 kts 185°
2026-05-05 21:01 33.06483 -97.05374 2884 ft 193 kts 184°
2026-05-05 21:02 33.05152 -97.05379 2835 ft 191 kts 185°
2026-05-05 21:02 33.03811 -97.05387 2747 ft 190 kts 185°
2026-05-05 21:02 33.02496 -97.05396 2660 ft 191 kts 184°
2026-05-05 21:02 33.01194 -97.05405 2545 ft 191 kts 185°
2026-05-05 21:03 32.99892 -97.05412 2367 ft 176 kts 184°
2026-05-05 21:03 32.98713 -97.05415 2099 ft 165 kts 185°
2026-05-05 21:03 32.97579 -97.05420 1822 ft 159 kts 184°
2026-05-05 21:03 32.96509 -97.05425 1607 ft 155 kts 186°
2026-05-05 21:04 32.95443 -97.05431 1450 ft 150 kts 183°
2026-05-05 21:04 32.94414 -97.05438 1248 ft 146 kts 184°
2026-05-05 21:04 32.93410 -97.05442 993 ft 144 kts 184°
2026-05-05 21:04 32.92421 -97.05442 810 ft 143 kts 183°
2026-05-05 21:05 32.91429 -97.05450 626 ft 140 kts 186°
2026-05-05 21:05 32.90506 -97.05477 619 ft 116 kts 178°
2026-05-05 21:05 32.89932 -97.05474 617 ft 62 kts 179°
2026-05-05 21:05 32.89513 -97.05474 614 ft 59 kts 179°
2026-05-05 21:06 32.89109 -97.05476 600 ft 57 kts 182°
2026-05-05 21:06 32.88721 -97.05481 597 ft 55 kts 179°
2026-05-05 21:06 32.88392 -97.05478 597 ft 38 kts 180°
2026-05-05 21:06 32.88130 -97.05486 600 ft 37 kts 181°
2026-05-05 21:07 32.87931 -97.05477 595 ft 16 kts 161°
2026-05-05 21:07 32.87906 -97.05461 595 ft 1 kts 146°
2026-05-05 21:07 32.87908 -97.05453 595 ft 2 kts 79°
2026-05-05 21:07 32.87911 -97.05397 595 ft 10 kts 88°
2026-05-05 21:08 32.87912 -97.05302 595 ft 14 kts 90°
2026-05-05 21:08 32.87912 -97.05156 592 ft 22 kts 90°
2026-05-05 21:08 32.87909 -97.04955 590 ft 26 kts 86°
2026-05-05 21:08 32.87979 -97.04900 592 ft 6 kts
2026-05-05 21:09 32.88025 -97.04897 593 ft 8 kts
2026-05-05 21:09 32.88087 -97.04896 594 ft 10 kts
2026-05-05 21:09 32.88171 -97.04898 595 ft 16 kts 359°
2026-05-05 21:09 32.88305 -97.04897 594 ft 21 kts
2026-05-05 21:10 32.88460 -97.04887 594 ft 22 kts
2026-05-05 21:10 32.88541 -97.04886 594 ft 12 kts
2026-05-05 21:10 32.88608 -97.04834 595 ft 13 kts 75°
2026-05-05 21:10 32.88608 -97.04725 596 ft 14 kts 88°
2026-05-05 21:11 32.88607 -97.04604 598 ft 17 kts 91°
2026-05-05 21:11 32.88606 -97.04449 598 ft 20 kts 90°
2026-05-05 21:11 32.88605 -97.04277 598 ft 22 kts 91°
2026-05-05 21:11 32.88605 -97.04089 598 ft 24 kts 90°
2026-05-05 21:12 32.88603 -97.03878 598 ft 27 kts 91°
2026-05-05 21:12 32.88602 -97.03649 598 ft 29 kts 91°
2026-05-05 21:12 32.88619 -97.03564 598 ft 1 kts 352°
2026-05-05 21:12 32.88639 -97.03564 598 ft 6 kts 357°
2026-05-05 21:13 32.88686 -97.03571 598 ft 8 kts 345°
2026-05-05 21:13 32.88743 -97.03593 598 ft 8 kts 15°
2026-05-05 21:13 32.88798 -97.03549 598 ft 11 kts 42°
2026-05-05 21:13 32.88817 -97.03553 598 ft 3 kts 316°
2026-05-05 21:14 32.88840 -97.03577 598 ft 6 kts 322°
2026-05-05 21:14 32.88849 -97.03585 598 ft 0 kts 321°
2026-05-05 21:25 32.88846 -97.03583 598 ft 3 kts 320°
2026-05-05 21:25 32.88828 -97.03560 598 ft 4 kts 296°
2026-05-05 21:25 32.88822 -97.03532 598 ft 4 kts 245°
2026-05-05 21:25 32.88826 -97.03522 598 ft 4 kts 208°
2026-05-05 21:26 32.88804 -97.03540 598 ft 4 kts 216°
2026-05-05 21:26 32.88783 -97.03560 598 ft 4 kts 221°
2026-05-05 21:26 32.88763 -97.03583 598 ft 4 kts 226°
2026-05-05 21:26 32.88749 -97.03598 598 ft 4 kts 207°
2026-05-05 21:27 32.88727 -97.03587 598 ft 4 kts 150°
2026-05-05 21:27 32.88703 -97.03573 598 ft 4 kts 158°
2026-05-05 21:27 32.88677 -97.03567 598 ft 4 kts 173°
2026-05-05 21:27 32.88650 -97.03564 598 ft 4 kts 173°
2026-05-05 21:28 32.88625 -97.03555 598 ft 4 kts 156°
2026-05-05 21:28 32.88606 -97.03534 598 ft 4 kts 123°
2026-05-05 21:28 32.88600 -97.03505 598 ft 2 kts 95°
2026-05-05 21:28 32.88600 -97.03474 598 ft 4 kts 90°
2026-05-05 21:29 32.88600 -97.03441 598 ft 4 kts 89°
2026-05-05 21:29 32.88600 -97.03410 597 ft 4 kts 88°
2026-05-05 21:29 32.88601 -97.03377 597 ft 4 kts 88°
2026-05-05 21:29 32.88602 -97.03345 597 ft 4 kts 88°
2026-05-05 21:30 32.88599 -97.03324 597 ft 4 kts 132°
2026-05-05 21:30 32.88575 -97.03323 597 ft 4 kts 182°
2026-05-05 21:30 32.88556 -97.03323 597 ft 0 kts 180°
2026-05-05 21:32 32.88537 -97.03326 597 ft 4 kts 190°
2026-05-05 21:32 32.88513 -97.03338 597 ft 4 kts 210°
2026-05-05 21:32 32.88496 -97.03354 597 ft 3 kts 220°
2026-05-05 21:33 32.88477 -97.03375 597 ft 4 kts 211°
2026-05-05 21:33 32.88456 -97.03376 597 ft 4 kts 181°
2026-05-05 21:33 32.88429 -97.03377 597 ft 4 kts 181°
2026-05-05 21:33 32.88423 -97.03377 597 ft 0 kts 181°
2026-05-05 21:34 32.88402 -97.03377 597 ft 4 kts 181°
2026-05-05 21:35 32.88375 -97.03378 597 ft 4 kts 181°
2026-05-05 21:35 32.88347 -97.03378 597 ft 4 kts 180°
2026-05-05 21:35 32.88321 -97.03378 597 ft 4 kts 180°
2026-05-05 21:35 32.88294 -97.03378 597 ft 4 kts 180°
2026-05-05 21:36 32.88266 -97.03378 597 ft 4 kts 179°
2026-05-05 21:36 32.88239 -97.03378 597 ft 4 kts 179°
2026-05-05 21:36 32.88214 -97.03380 597 ft 4 kts 196°
2026-05-05 21:36 32.88200 -97.03404 598 ft 4 kts 252°
2026-05-05 21:37 32.88202 -97.03435 598 ft 4 kts 282°
2026-05-05 21:37 32.88213 -97.03464 598 ft 4 kts 299°
2026-05-05 21:37 32.88235 -97.03478 598 ft 4 kts 343°
2026-05-05 21:37 32.88247 -97.03481 598 ft 4 kts 351°
2026-05-05 21:38 32.88275 -97.03484 598 ft 4 kts 355°
2026-05-05 21:38 32.88302 -97.03486 598 ft 4 kts 357°
2026-05-05 21:38 32.88329 -97.03487 598 ft 4 kts 358°
2026-05-05 21:38 32.88356 -97.03487 598 ft 4 kts 359°
2026-05-05 21:39 32.88383 -97.03488 598 ft 4 kts 359°
2026-05-05 21:39 32.88410 -97.03488 598 ft 4 kts
2026-05-05 21:39 32.88437 -97.03488 598 ft 4 kts
2026-05-05 21:39 32.88462 -97.03487 598 ft 2 kts
2026-05-05 21:40 32.88463 -97.03487 598 ft 0 kts
2026-05-05 21:41 32.88459 -97.03487 598 ft 2 kts
2026-05-05 21:41 32.88443 -97.03488 598 ft 2 kts
2026-05-05 21:41 32.88436 -97.03488 598 ft 0 kts
2026-05-05 21:49 32.88434 -97.03488 598 ft 2 kts
2026-05-05 21:49 32.88418 -97.03488 598 ft 2 kts
2026-05-05 21:49 32.88401 -97.03489 598 ft 1 kts